Time,TemperatureF,DewpointF,PressureIn,WindDirection,WindDirectionDegrees,WindSpeedMPH,WindSpeedGustMPH,Humidity,HourlyPrecipIn,Conditions,Clouds,dailyrainin,SoftwareType,DateUTC
2013-08-23 00:02:00,65.0,64.0,29.87,NNE,23,0.0,1.0,97,0.00,,,0.00,weatherlink.com 1.10,2013-08-23 04:02:00,
2013-08-23 00:17:00,65.0,65.0,29.87,WNW,291,0.0,1.0,98,0.00,,,0.00,weatherlink.com 1.10,2013-08-23 04:17:00,
2013-08-23 00:32:00,64.5,64.0,29.88,NE,40,1.0,2.0,97,0.00,,,0.00,weatherlink.com 1.10,2013-08-23 04:32:00,
2013-08-23 00:47:00,64.2,63.0,29.88,NW,323,0.0,1.0,97,0.00,,,0.00,weatherlink.com 1.10,2013-08-23 04:47:00,
2013-08-23 01:03:00,63.7,63.0,29.89,NNW,335,0.0,1.0,97,0.00,,,0.00,weatherlink.com 1.10,2013-08-23 05:03:00,
2013-08-23 01:18:00,63.2,62.0,29.89,North,11,0.0,1.0,97,0.00,,,0.00,weatherlink.com 1.10,2013-08-23 05:18:00,
2013-08-23 01:33:00,62.5,62.0,29.89,NNE,33,1.0,2.0,97,0.00,,,0.00,weatherlink.com 1.10,2013-08-23 05:33:00,
2013-08-23 01:48:00,61.9,61.0,29.89,NNE,33,0.0,1.0,97,0.00,,,0.00,weatherlink.com 1.10,2013-08-23 05:48:00,
2013-08-23 02:03:00,61.4,61.0,29.89,NNE,33,0.0,1.0,97,0.00,,,0.00,weatherlink.com 1.10,2013-08-23 06:03:00,
2013-08-23 02:18:00,61.1,61.0,29.89,NE,53,0.0,1.0,98,0.00,,,0.00,weatherlink.com 1.10,2013-08-23 06:18:00,
2013-08-23 02:33:00,60.7,60.0,29.90,NNE,16,0.0,1.0,98,0.00,,,0.00,weatherlink.com 1.10,2013-08-23 06:33:00,
2013-08-23 02:48:00,60.1,59.0,29.89,NE,41,1.0,2.0,97,0.00,,,0.00,weatherlink.com 1.10,2013-08-23 06:48:00,
2013-08-23 03:03:00,59.9,59.0,29.89,NNE,28,0.0,1.0,98,0.00,,,0.00,weatherlink.com 1.10,2013-08-23 07:03:00,
2013-08-23 03:18:00,59.1,59.0,29.90,NNE,28,0.0,2.0,98,0.00,,,0.00,weatherlink.com 1.10,2013-08-23 07:18:00,
2013-08-23 03:33:00,58.7,58.0,29.90,NNE,28,0.0,1.0,98,0.00,,,0.00,weatherlink.com 1.10,2013-08-23 07:33:00,
2013-08-23 03:48:00,58.3,58.0,29.90,NNE,28,0.0,0.0,98,0.01,,,0.01,weatherlink.com 1.10,2013-08-23 07:48:00,
2013-08-23 04:03:00,58.1,58.0,29.90,NNE,28,0.0,0.0,98,0.01,,,0.01,weatherlink.com 1.10,2013-08-23 08:03:00,
2013-08-23 04:18:00,57.6,57.0,29.90,NNE,28,0.0,0.0,98,0.01,,,0.01,weatherlink.com 1.10,2013-08-23 08:18:00,
2013-08-23 04:33:00,57.4,57.0,29.91,NNE,28,0.0,0.0,98,0.01,,,0.01,weatherlink.com 1.10,2013-08-23 08:33:00,
2013-08-23 04:48:00,57.3,57.0,29.91,NNE,28,0.0,0.0,98,0.00,,,0.01,weatherlink.com 1.10,2013-08-23 08:48:00,
2013-08-23 05:03:00,57.1,57.0,29.91,NNE,28,0.0,0.0,98,0.00,,,0.01,weatherlink.com 1.10,2013-08-23 09:03:00,
2013-08-23 05:18:00,57.1,57.0,29.92,NNE,28,0.0,0.0,98,0.00,,,0.01,weatherlink.com 1.10,2013-08-23 09:18:00,
2013-08-23 05:33:00,57.0,57.0,29.92,NNW,335,1.0,1.0,98,0.00,,,0.01,weatherlink.com 1.10,2013-08-23 09:33:00,
2013-08-23 05:48:00,56.8,56.0,29.92,NNE,16,0.0,1.0,98,0.00,,,0.01,weatherlink.com 1.10,2013-08-23 09:48:00,
2013-08-23 06:03:00,56.9,57.0,29.93,NNW,345,0.0,1.0,99,0.00,,,0.01,weatherlink.com 1.10,2013-08-23 10:03:00,
2013-08-23 06:18:00,56.5,56.0,29.94,SE,125,0.0,1.0,98,0.00,,,0.01,weatherlink.com 1.10,2013-08-23 10:18:00,
2013-08-23 06:33:00,57.0,57.0,29.95,NNE,30,0.0,1.0,99,0.00,,,0.01,weatherlink.com 1.10,2013-08-23 10:33:00,
2013-08-23 06:48:00,58.0,58.0,29.96,NE,55,1.0,1.0,99,0.00,,,0.01,weatherlink.com 1.10,2013-08-23 10:48:00,
2013-08-23 07:03:00,60.1,60.0,29.97,NE,53,0.0,1.0,99,0.00,,,0.01,weatherlink.com 1.10,2013-08-23 11:03:00,
2013-08-23 07:18:00,59.8,59.0,29.98,ESE,103,1.0,2.0,98,0.00,,,0.01,weatherlink.com 1.10,2013-08-23 11:18:00,
2013-08-23 07:33:00,61.3,61.0,29.98,NE,55,0.0,1.0,97,0.00,,,0.01,weatherlink.com 1.10,2013-08-23 11:33:00,
2013-08-23 07:48:00,62.2,59.0,29.99,NNE,27,2.0,8.0,89,0.00,,,0.01,weatherlink.com 1.10,2013-08-23 11:48:00,
2013-08-23 08:03:00,62.7,58.0,29.99,ENE,66,0.0,5.0,84,0.00,,,0.01,weatherlink.com 1.10,2013-08-23 12:03:00,
2013-08-23 08:19:00,62.7,57.0,30.00,NE,56,6.0,8.0,81,0.00,,,0.01,weatherlink.com 1.10,2013-08-23 12:19:00,
2013-08-23 08:34:00,63.1,57.0,30.00,ENE,71,1.0,9.0,80,0.00,,,0.01,weatherlink.com 1.10,2013-08-23 12:34:00,
2013-08-23 08:49:00,64.1,57.0,30.00,NNE,20,6.0,8.0,78,0.00,,,0.01,weatherlink.com 1.10,2013-08-23 12:49:00,
2013-08-23 09:04:00,64.4,58.0,30.02,North,10,4.0,9.0,80,0.00,,,0.01,weatherlink.com 1.10,2013-08-23 13:04:00,
2013-08-23 09:19:00,64.5,58.0,30.02,ENE,58,2.0,10.0,79,0.00,,,0.01,weatherlink.com 1.10,2013-08-23 13:19:00,
2013-08-23 09:34:00,64.7,57.0,30.03,ENE,68,1.0,7.0,76,0.00,,,0.01,weatherlink.com 1.10,2013-08-23 13:34:00,
2013-08-23 09:49:00,64.9,58.0,30.04,NE,41,0.0,7.0,77,0.00,,,0.01,weatherlink.com 1.10,2013-08-23 13:49:00,
2013-08-23 10:04:00,65.8,57.0,30.05,NE,48,8.0,9.0,73,0.00,,,0.01,weatherlink.com 1.10,2013-08-23 14:04:00,
2013-08-23 10:19:00,67.4,58.0,30.05,ENE,70,6.0,11.0,72,0.00,,,0.01,weatherlink.com 1.10,2013-08-23 14:19:00,
2013-08-23 10:34:00,68.1,58.0,30.05,NE,54,7.0,10.0,69,0.00,,,0.01,weatherlink.com 1.10,2013-08-23 14:34:00,
2013-08-23 10:49:00,67.3,56.0,30.05,NNE,22,6.0,13.0,68,0.00,,,0.01,weatherlink.com 1.10,2013-08-23 14:49:00,
2013-08-23 11:04:00,67.4,56.0,30.06,NNE,28,6.0,10.0,68,0.00,,,0.01,weatherlink.com 1.10,2013-08-23 15:04:00,
2013-08-23 11:19:00,67.1,55.0,30.06,NE,50,6.0,7.0,66,0.00,,,0.01,weatherlink.com 1.10,2013-08-23 15:19:00,
2013-08-23 11:34:00,67.8,57.0,30.06,ESE,112,4.0,8.0,68,0.00,,,0.01,weatherlink.com 1.10,2013-08-23 15:34:00,
2013-08-23 11:49:00,69.0,55.0,30.06,ENE,76,1.0,12.0,61,0.00,,,0.01,weatherlink.com 1.10,2013-08-23 15:49:00,
2013-08-23 12:04:00,69.4,54.0,30.05,ESE,108,4.0,13.0,59,0.00,,,0.01,weatherlink.com 1.10,2013-08-23 16:04:00,
2013-08-23 12:19:00,69.7,55.0,30.05,East,98,8.0,11.0,59,0.00,,,0.01,weatherlink.com 1.10,2013-08-23 16:19:00,
2013-08-23 12:34:00,70.0,56.0,30.05,SE,124,4.0,13.0,61,0.00,,,0.01,weatherlink.com 1.10,2013-08-23 16:34:00,
2013-08-23 12:49:00,70.2,54.0,30.05,SSE,148,3.0,14.0,56,0.00,,,0.01,weatherlink.com 1.10,2013-08-23 16:49:00,
2013-08-23 13:19:00,71.4,55.0,30.05,SE,131,5.0,11.0,57,0.00,,,0.01,weatherlink.com 1.10,2013-08-23 17:19:00,
2013-08-23 13:34:00,71.1,54.0,30.05,NNE,25,7.0,12.0,56,0.00,,,0.01,weatherlink.com 1.10,2013-08-23 17:34:00,
2013-08-23 13:49:00,71.6,56.0,30.05,SE,126,5.0,11.0,59,0.00,,,0.01,weatherlink.com 1.10,2013-08-23 17:49:00,
2013-08-23 14:05:00,71.9,57.0,30.05,ESE,122,5.0,9.0,60,0.00,,,0.01,weatherlink.com 1.10,2013-08-23 18:05:00,
2013-08-23 14:19:00,71.6,55.0,30.05,NE,48,3.0,11.0,57,0.00,,,0.01,weatherlink.com 1.10,2013-08-23 18:19:00,
2013-08-23 14:34:00,71.7,55.0,30.05,NNE,30,5.0,9.0,56,0.00,,,0.01,weatherlink.com 1.10,2013-08-23 18:34:00,
2013-08-23 14:49:00,72.1,55.0,30.05,ENE,60,6.0,12.0,55,0.00,,,0.01,weatherlink.com 1.10,2013-08-23 18:49:00,
2013-08-23 15:04:00,72.1,56.0,30.05,North,11,5.0,9.0,57,0.00,,,0.01,weatherlink.com 1.10,2013-08-23 19:04:00,
2013-08-23 15:19:00,72.6,55.0,30.05,NE,49,2.0,9.0,54,0.00,,,0.01,weatherlink.com 1.10,2013-08-23 19:19:00,
2013-08-23 15:34:00,72.2,55.0,30.05,East,88,8.0,15.0,55,0.00,,,0.01,weatherlink.com 1.10,2013-08-23 19:34:00,
2013-08-23 15:50:00,72.6,55.0,30.05,ESE,105,1.0,12.0,55,0.00,,,0.01,weatherlink.com 1.10,2013-08-23 19:50:00,
2013-08-23 16:04:00,72.7,56.0,30.05,ENE,76,1.0,15.0,56,0.00,,,0.01,weatherlink.com 1.10,2013-08-23 20:04:00,
2013-08-23 16:20:00,72.7,55.0,30.06,NNE,13,3.0,10.0,54,0.00,,,0.01,weatherlink.com 1.10,2013-08-23 20:20:00,
2013-08-23 16:35:00,72.4,55.0,30.06,ENE,59,5.0,7.0,54,0.00,,,0.01,weatherlink.com 1.10,2013-08-23 20:35:00,
2013-08-23 16:50:00,72.2,54.0,30.06,NE,41,3.0,10.0,53,0.00,,,0.01,weatherlink.com 1.10,2013-08-23 20:50:00,
2013-08-23 17:05:00,72.4,54.0,30.07,ENE,67,6.0,8.0,52,0.00,,,0.01,weatherlink.com 1.10,2013-08-23 21:05:00,
2013-08-23 17:20:00,72.2,53.0,30.07,NE,41,10.0,11.0,52,0.00,,,0.01,weatherlink.com 1.10,2013-08-23 21:20:00,
2013-08-23 17:35:00,71.7,54.0,30.07,ESE,108,6.0,10.0,53,0.00,,,0.01,weatherlink.com 1.10,2013-08-23 21:35:00,
2013-08-23 17:50:00,71.5,54.0,30.08,NNE,23,6.0,9.0,54,0.00,,,0.01,weatherlink.com 1.10,2013-08-23 21:50:00,
2013-08-23 18:05:00,71.1,52.0,30.08,ENE,61,6.0,13.0,51,0.00,,,0.01,weatherlink.com 1.10,2013-08-23 22:05:00,
2013-08-23 18:20:00,70.4,52.0,30.08,ENE,70,4.0,9.0,52,0.00,,,0.01,weatherlink.com 1.10,2013-08-23 22:20:00,
2013-08-23 18:35:00,69.8,52.0,30.09,East,79,1.0,9.0,54,0.00,,,0.01,weatherlink.com 1.10,2013-08-23 22:35:00,
2013-08-23 18:50:00,68.6,52.0,30.09,ESE,120,0.0,10.0,56,0.00,,,0.01,weatherlink.com 1.10,2013-08-23 22:50:00,
2013-08-23 19:05:00,67.6,52.0,30.09,NE,54,1.0,5.0,58,0.00,,,0.01,weatherlink.com 1.10,2013-08-23 23:05:00,
2013-08-23 19:20:00,66.7,52.0,30.09,NNE,23,2.0,5.0,60,0.00,,,0.01,weatherlink.com 1.10,2013-08-23 23:20:00,
2013-08-23 19:35:00,65.5,53.0,30.10,NE,55,0.0,2.0,65,0.00,,,0.01,weatherlink.com 1.10,2013-08-23 23:35:00,
2013-08-23 19:50:00,63.0,54.0,30.10,NE,49,0.0,2.0,72,0.00,,,0.01,weatherlink.com 1.10,2013-08-23 23:50:00,
2013-08-23 20:05:00,61.2,54.0,30.11,NE,37,0.0,2.0,78,0.00,,,0.01,weatherlink.com 1.10,2013-08-24 00:05:00,
2013-08-23 20:20:00,59.8,54.0,30.11,NNE,24,0.0,1.0,82,0.00,,,0.01,weatherlink.com 1.10,2013-08-24 00:20:00,
2013-08-23 20:35:00,58.8,54.0,30.12,NNE,25,1.0,1.0,84,0.00,,,0.01,weatherlink.com 1.10,2013-08-24 00:35:00,
2013-08-23 20:50:00,58.0,54.0,30.13,NNE,25,0.0,1.0,85,0.00,,,0.01,weatherlink.com 1.10,2013-08-24 00:50:00,
2013-08-23 21:05:00,57.4,54.0,30.13,NNE,24,0.0,1.0,87,0.00,,,0.01,weatherlink.com 1.10,2013-08-24 01:05:00,
2013-08-23 21:20:00,56.8,54.0,30.13,NNE,24,0.0,1.0,89,0.00,,,0.01,weatherlink.com 1.10,2013-08-24 01:20:00,
2013-08-23 21:35:00,56.2,53.0,30.14,NNE,25,0.0,1.0,90,0.00,,,0.01,weatherlink.com 1.10,2013-08-24 01:35:00,
2013-08-23 21:50:00,55.8,54.0,30.14,NNE,24,0.0,1.0,92,0.00,,,0.01,weatherlink.com 1.10,2013-08-24 01:50:00,
2013-08-23 22:05:00,55.5,54.0,30.14,NNE,24,0.0,1.0,93,0.00,,,0.01,weatherlink.com 1.10,2013-08-24 02:05:00,
2013-08-23 22:20:00,55.0,53.0,30.14,NNE,24,0.0,1.0,93,0.00,,,0.01,weatherlink.com 1.10,2013-08-24 02:20:00,
2013-08-23 22:35:00,54.8,53.0,30.15,NNE,24,0.0,0.0,94,0.00,,,0.01,weatherlink.com 1.10,2013-08-24 02:35:00,
2013-08-23 22:50:00,54.6,53.0,30.16,NNE,25,0.0,1.0,94,0.00,,,0.01,weatherlink.com 1.10,2013-08-24 02:50:00,
2013-08-23 23:05:00,54.2,53.0,30.16,NNE,24,0.0,1.0,94,0.00,,,0.01,weatherlink.com 1.10,2013-08-24 03:05:00,
2013-08-23 23:20:00,53.9,53.0,30.16,NNE,24,0.0,1.0,95,0.00,,,0.01,weatherlink.com 1.10,2013-08-24 03:20:00,
2013-08-23 23:35:00,53.6,52.0,30.17,NNE,25,0.0,1.0,95,0.00,,,0.01,weatherlink.com 1.10,2013-08-24 03:35:00,
2013-08-23 23:50:00,53.5,52.0,30.18,NNE,25,0.0,1.0,96,0.00,,,0.01,weatherlink.com 1.10,2013-08-24 03:50:00,